Stations météo

réclame
Mon MeteoGroup
St.Peter-Ording, Allemagne (10028): Température de l'air & dewpoint: 15.10.2017 15:00:00 - 21.10.2017 15:00:00 (CEST)St.Peter-Ording, Allemagne (10028): Température de l'air 5cm & Température de l'air -5cm: 15.10.2017 15:00:00 - 21.10.2017 15:00:00 (CEST)St.Peter-Ording, Allemagne (10028): Température de l'air -20cm & Température de l'air -100cm: 15.10.2017 15:00:00 - 21.10.2017 15:00:00 (CEST)St.Peter-Ording, Allemagne (10028): Vitesse du vent & gusts: 15.10.2017 15:00:00 - 21.10.2017 15:00:00 (CEST)St.Peter-Ording, Allemagne (10028): Direction du vent: 15.10.2017 15:00:00 - 21.10.2017 15:00:00 (CEST)St.Peter-Ording, Allemagne (10028): reduced air pressure: 15.10.2017 15:00:00 - 21.10.2017 15:00:00 (CEST)St.Peter-Ording, Allemagne (10028): visibility: 15.10.2017 15:00:00 - 21.10.2017 15:00:00 (CEST)St.Peter-Ording, Allemagne (10028): Ensoleillement: 15.10.2017 15:00:00 - 21.10.2017 15:00:00 (CEST)St.Peter-Ording, Allemagne (10028): Quantités de précipitations: 15.10.2017 15:00:00 - 21.10.2017 15:00:00 (CEST)
Date & Time tt [°C] td [°C] tt 5cm [°C] tt -5cm [°C] tt -20cm [°C] tt -100cm [°C] ff [km/h] ff [knt] fx [km/h] fx [knt] dd ppp [hPa] vv [km] sd [min] rr [mm]
21.10.2017 15:00:00 12,6 9,7 12,5 14,2 13,1 13,8 25 14 39 21 SSE 1009,4 15 0 0,1
21.10.2017 14:00:00 12,3 10,2 11,9 13,6 13,1 13,8 16 9 30 16 SSE 1009,6 7 0 0,1
21.10.2017 13:00:00 11,8 10,1 11,4 13,1 13,0 13,8 18 10 33 18 SSE 1010,2 10 0 0,4
21.10.2017 12:00:00 12,4 9,7 12,8 13,9 12,8 13,8 20 11 30 16 SSE 1010,6 12 0 0,0
21.10.2017 11:00:00 12,2 9,6 12,6 13,5 12,7 13,8 19 10 31 17 SSE 1010,8 14 3 0,0
21.10.2017 10:00:00 12,3 10,2 12,4 12,4 12,7 13,8 15 8 26 14 S 1010,9 4,7 0 0,0
21.10.2017 09:00:00 12,1 10,1 11,8 11,8 12,7 13,8 18 10 31 17 SSW 1010,6 0,4 0 0,0
21.10.2017 08:00:00 12,4 10,8 12,4 12,0 12,8 13,8 19 11 33 18 SSW 1010,4 0,3 0 0,0
21.10.2017 07:00:00 12,8 11,7 12,5 12,0 12,8 13,8 23 13 32 18 SW 1010,0 0,2 0 0,0
21.10.2017 06:00:00 13,0 11,8 12,8 12,3 12,8 13,8 19 11 28 15 SSW 1009,8 0,4 0 0,0
21.10.2017 05:00:00 12,8 11,7 12,5 12,2 12,9 13,8 12 7 30 16 SSW 1009,7 4,3 0 0,0
21.10.2017 04:00:00 12,5 11,1 12,4 12,2 12,9 13,8 19 11 29 16 SSW 1009,7 0,4 0 0,0
21.10.2017 03:00:00 12,5 10,9 12,4 12,2 13,0 13,8 21 11 34 19 SSW 1009,9 0,7 0 0,0
21.10.2017 02:00:00 12,6 11,0 12,5 12,2 13,0 13,8 26 14 41 22 SSW 1009,7 0,6 0 0,0
21.10.2017 01:00:00 12,7 11,5 12,6 12,3 13,1 13,8 23 12 36 19 SSW 1009,5 0,8 0 1,6
21.10.2017 00:00:00 12,7 11,4 12,5 12,1 13,2 13,8 21 12 36 19 S 1009,5 1,9 0 0,0
20.10.2017 23:00:00 12,6 11,3 12,1 12,1 13,3 13,8 24 13 37 20 S 1009,5 1,2 0 0,0
20.10.2017 22:00:00 12,7 11,0 12,5 12,1 13,4 13,8 24 13 40 21 S 1009,4 0,5 0 0,0
20.10.2017 21:00:00 12,8 11,1 12,1 12,0 13,6 13,9 23 12 44 24 S 1009,1 2,3 0 0,0
20.10.2017 20:00:00 13,4 10,9 13,1 12,7 13,7 13,9 29 15 41 22 SSW 1008,7 0,4 0 0,1
20.10.2017 19:00:00 14,0 12,4 13,3 13,1 13,9 13,9 15 8 26 14 SSE 1008,2 9 0 0,0
20.10.2017 18:00:00 14,2 12,5 14,0 13,9 13,9 13,9 16 8 31 17 SSE 1007,9 10 15 0,0
20.10.2017 17:00:00 15,1 12,6 15,5 15,7 13,8 13,9 19 10 35 19 SSE 1007,7 12 15 0,0
20.10.2017 16:00:00 14,5 12,5 14,5 15,3 13,6 13,9 21 11 42 23 SSE 1007,6 12 2 0,0
20.10.2017 15:00:00 14,4 12,4 14,5 14,8 13,4 13,9 21 11 44 24 SSE 1007,4 11 0 0,0
20.10.2017 14:00:00 14,9 12,6 15,0 15,3 13,2 13,9 26 14 48 26 SSE 1007,5 13 0 0,0
20.10.2017 13:00:00 15,0 12,6 15,4 14,8 13,0 13,9 28 15 47 25 SSE 1007,7 15 0 0,6
20.10.2017 12:00:00 13,9 12,3 13,0 13,2 12,9 13,9 23 13 39 21 SSE 1008,4 7 0 1,0
20.10.2017 11:00:00 13,6 11,5 12,8 13,1 12,8 13,9 18 10 34 19 SSE 1009,1 5 0 0,0
20.10.2017 10:00:00 13,6 11,3 13,4 12,9 12,7 13,9 20 11 38 21 SE 1008,1 6 1 0,0
20.10.2017 09:00:00 12,6 11,2 12,3 12,1 12,7 13,9 25 13 37 20 SE 1007,9 3,5 0 0,0
20.10.2017 08:00:00 12,5 11,5 12,1 12,0 12,7 13,9 21 11 35 19 SE 1007,8 3,0 0 0,1
20.10.2017 07:00:00 12,4 11,5 12,1 12,0 12,7 13,9 21 11 33 18 ESE 1008,2 2,5 0 0,0
20.10.2017 06:00:00 12,1 11,6 11,8 11,9 12,8 13,9 23 12 33 18 SE 1008,6 1,8 0 0,0
20.10.2017 05:00:00 12,0 11,6 11,7 11,7 12,8 13,9 21 11 32 17 ESE 1008,8 1,2 0 0,0
20.10.2017 04:00:00 11,9 11,6 11,8 11,9 12,8 13,9 19 10 35 19 SE 1009,2 0,7 0 0,0
20.10.2017 03:00:00 11,9 11,5 11,8 11,7 12,9 13,9 21 12 35 19 SE 1009,6 1,0 0 0,0
20.10.2017 02:00:00 11,9 11,4 11,4 11,4 13,0 13,9 20 11 31 17 SE 1009,7 1,1 0 0,0
20.10.2017 01:00:00 12,4 11,7 11,8 11,2 13,1 13,9 19 10 26 14 ESE 1009,7 1,7 0 0,0
20.10.2017 00:00:00 12,2 11,6 11,4 11,1 13,4 13,9 16 9 22 12 ESE 1010,0 1,5 0 0,0
19.10.2017 23:00:00 12,0 11,5 11,2 11,3 13,6 13,9 14 8 19 11 E 1010,6 1,4 0 0,0
19.10.2017 22:00:00 12,5 12,0 11,5 11,6 13,9 13,9 14 7 24 13 ESE 1010,9 2,0 0 0,0
19.10.2017 21:00:00 13,0 12,3 12,1 12,3 14,1 13,9 17 9 26 14 E 1011,0 2,5 0 0,0
19.10.2017 20:00:00 13,3 12,4 12,4 12,7 14,3 13,9 17 9 23 13 E 1011,0 3,3 0 0,0
19.10.2017 19:00:00 14,3 13,0 13,2 13,6 14,5 13,9 12 7 18 10 E 1011,2 2,7 0 0,0
19.10.2017 18:00:00 15,1 13,2 14,4 14,7 14,5 13,9 11 6 18 10 E 1011,3 3,4 0 0,0
19.10.2017 17:00:00 15,7 13,3 15,4 15,7 14,5 13,9 12 7 22 12 ESE 1011,6 3,5 0 0,0
19.10.2017 16:00:00 15,9 13,4 16,2 16,7 14,2 13,9 15 8 22 12 ESE 1012,0 3,4 0 0,0
19.10.2017 15:00:00 15,3 13,0 16,0 17,1 13,9 13,9 19 11 29 16 ESE 1012,3 2,9 0 0,0
19.10.2017 14:00:00 15,0 12,8 16,4 16,7 13,6 13,9 19 11 29 16 ESE 1012,8 3,3 0 0,0
19.10.2017 13:00:00 14,5 12,2 15,5 16,2 13,3 13,9 18 10 34 19 SE 1013,1 6 1 0,0
19.10.2017 12:00:00 13,8 11,7 14,3 14,6 13,0 13,9 19 11 29 16 SE 1013,0 10 0 0,0
19.10.2017 11:00:00 13,4 11,2 14,0 14,1 12,9 13,9 20 11 29 16 ESE 1013,1 10 0 0,0
19.10.2017 10:00:00 12,5 11,1 12,6 12,4 12,9 13,9 13 7 21 11 ESE 1013,6 10 0 0,0
19.10.2017 09:00:00 11,6 10,5 11,0 11,4 13,0 13,9 14 7 22 12 ESE 1013,2 10 0 0,0
19.10.2017 08:00:00 12,4 11,0 12,3 12,3 13,0 13,9 12 7 18 10 E 1013,1 10 0 0,0
19.10.2017 07:00:00 12,5 11,0 12,4 12,2 13,0 13,9 10 5 16 9 E 1013,4 10 0 0,0
19.10.2017 06:00:00 12,4 11,0 12,3 12,1 13,1 13,9 10 5 18 10 E 1013,4 10 0 0,0
19.10.2017 05:00:00 11,9 10,8 11,7 11,8 13,2 13,9 11 6 22 12 ESE 1013,5 9 0 0,0
19.10.2017 04:00:00 11,9 10,8 11,5 11,8 13,3 13,9 11 6 19 11 E 1013,9 9 0 0,0
19.10.2017 03:00:00 12,2 10,9 11,7 12,1 13,4 13,9 12 6 18 10 E 1014,1 10 0 0,0
19.10.2017 02:00:00 12,4 11,2 12,2 12,5 13,5 13,9 12 6 18 10 E 1014,1 8 0 0,0
19.10.2017 01:00:00 12,4 11,2 12,2 12,5 13,5 13,9 11 6 14 7 E 1014,3 8 0 0,0
19.10.2017 00:00:00 12,6 11,3 12,4 12,7 13,6 13,9 11 6 16 8 E 1014,2 10 0 0,0
18.10.2017 23:00:00 12,6 11,5 12,4 12,8 13,7 14,0 7 4 12 7 ENE 1014,7 13 0 0,0
18.10.2017 22:00:00 12,4 11,4 12,1 12,7 13,9 14,0 5 3 8 4 NE 1014,7 11 0 0,0
18.10.2017 21:00:00 12,1 11,1 11,5 12,7 14,0 14,0 5 3 13 7 NE 1014,7 13 0 0,0
18.10.2017 20:00:00 12,6 11,8 12,1 13,1 14,2 14,0 6 3 8 4 ENE 1014,5 6 0 0,0
18.10.2017 19:00:00 12,8 11,7 11,9 13,6 14,4 14,0 4 2 7 4 N 1014,7 7 0 0,0
18.10.2017 18:00:00 13,6 12,4 12,8 14,6 14,4 14,0 3 2 5 3 NNW 1014,5 8 0 0,0
18.10.2017 17:00:00 13,9 12,0 14,2 15,2 14,4 14,0 4 2 6 3 SSW 1014,5 14 0 0,0
18.10.2017 16:00:00 13,8 12,3 14,4 15,7 14,3 14,0 6 3 10 5 SW 1014,7 11 0 0,0
18.10.2017 15:00:00 14,0 12,3 14,7 16,4 14,1 14,0 8 5 12 6 SW 1015,0 11 0 0,0
18.10.2017 14:00:00 14,6 11,7 15,8 17,5 13,7 14,0 9 5 11 6 SW 1015,1 12 15 0,0
18.10.2017 13:00:00 14,4 12,0 15,3 17,2 13,3 14,0 9 5 13 7 SW 1015,3 18 55 0,0
18.10.2017 12:00:00 14,4 11,2 16,1 16,8 12,8 14,0 11 6 17 9 WSW 1015,3 13 60 0,0
18.10.2017 11:00:00 14,1 12,2 15,8 14,9 12,5 14,0 13 7 21 11 WSW 1015,4 12 45 0,0
18.10.2017 10:00:00 13,4 12,2 13,2 12,5 12,5 14,0 14 8 18 10 SW 1015,2 12 18 0,0
18.10.2017 09:00:00 13,2 11,1 12,6 11,3 12,5 14,0 16 8 19 10 W 1015,2 17 8 0,0
18.10.2017 08:00:00 12,8 11,0 11,8 11,2 12,6 14,0 15 8 18 10 WSW 1014,8 15 0 0,0
18.10.2017 07:00:00 13,0 11,8 12,2 11,3 12,6 14,0 17 9 25 13 WSW 1014,8 12 0 0,0
18.10.2017 06:00:00 13,1 11,9 12,2 11,2 12,7 14,0 23 12 30 16 WSW 1015,0 10 0 0,0
18.10.2017 05:00:00 13,1 11,6 12,1 11,2 12,7 14,0 23 13 32 17 WSW 1015,0 11 0 0,0
18.10.2017 04:00:00 13,2 11,5 12,2 11,2 12,8 14,0 25 14 35 19 WSW 1015,2 9 0 0,0
18.10.2017 03:00:00 13,3 10,2 12,3 11,1 12,9 14,0 27 15 37 20 WSW 1015,4 17 0 0,0
18.10.2017 02:00:00 13,3 10,2 12,1 11,0 13,1 14,0 28 15 40 22 WSW 1015,6 15 0 0,0
18.10.2017 01:00:00 13,4 10,1 12,3 11,2 13,2 14,0 31 17 39 21 W 1015,9 15 0 0,0
18.10.2017 00:00:00 13,5 9,9 12,6 11,3 13,4 14,0 34 18 43 23 W 1015,8 14 0 0,0
17.10.2017 23:00:00 13,5 10,1 12,5 11,4 13,5 14,0 34 18 45 25 WSW 1016,1 14 0 0,0
17.10.2017 22:00:00 13,6 10,8 12,5 11,7 13,7 14,0 34 19 50 27 WSW 1016,1 10 0 0,0
17.10.2017 21:00:00 13,7 10,0 12,8 12,0 13,9 14,0 40 22 52 28 WSW 1016,1 14 0 0,0
17.10.2017 20:00:00 13,7 10,1 12,9 12,1 14,2 14,0 42 23 56 30 WSW 1016,1 13 0 0,0
17.10.2017 19:00:00 13,8 10,6 13,0 12,5 14,4 14,0 34 18 53 28 WSW 1016,1 14 0 0,0
17.10.2017 18:00:00 13,8 10,9 13,1 13,3 14,6 14,0 35 19 53 28 SW 1016,2 13 25 0,0
17.10.2017 17:00:00 14,3 10,2 14,1 14,8 14,6 14,0 36 19 51 28 WSW 1016,7 14 32 0,0
17.10.2017 16:00:00 14,6 10,8 15,3 15,8 14,5 14,0 39 21 48 26 SW 1016,9 10 48 0,0
17.10.2017 15:00:00 14,8 11,2 15,8 16,1 14,3 14,0 39 21 50 27 SW 1017,2 8 53 0,0
17.10.2017 14:00:00 14,5 11,0 15,2 15,7 14,1 14,0 39 21 55 30 SW 1017,8 12 20 0,0
17.10.2017 13:00:00 14,5 11,2 15,1 15,4 13,9 14,0 35 19 50 27 SW 1018,2 10 8 0,0
17.10.2017 12:00:00 14,4 11,1 14,7 14,6 13,8 14,0 37 20 53 29 SW 1018,0 10 0 0,0
17.10.2017 11:00:00 14,3 11,6 14,2 13,7 13,7 14,0 35 19 49 27 SW 1017,9 10 0 0,0
17.10.2017 10:00:00 14,1 11,9 13,7 12,9 13,8 14,0 33 18 43 23 SW 1017,9 10 0 0,0
17.10.2017 09:00:00 14,1 11,9 13,5 12,6 13,9 14,0 33 18 43 23 SW 1017,7 10 0 0,0
17.10.2017 08:00:00 14,3 11,8 13,5 12,4 14,1 14,0 29 16 45 24 WSW 1017,4 13 0 0,0
17.10.2017 07:00:00 14,5 11,6 13,5 12,6 14,2 13,9 31 17 54 29 SW 1017,0 13 0 0,0
17.10.2017 06:00:00 15,0 12,1 14,1 13,2 14,4 13,9 29 16 40 22 SW 1016,9 12 0 0,0
17.10.2017 05:00:00 15,3 12,3 14,5 13,6 14,5 13,9 28 15 35 19 SW 1017,1 13 0 0,0
17.10.2017 04:00:00 15,7 13,7 14,9 13,7 14,6 13,9 23 12 31 17 SSW 1017,2 6 0 0,0
17.10.2017 03:00:00 16,1 13,8 15,4 13,8 14,7 13,9 25 14 37 20 SSW 1017,3 7 0 0,0
17.10.2017 02:00:00 16,2 13,8 15,4 13,9 14,8 13,9 25 14 35 19 SSW 1017,4 7 0 0,0
17.10.2017 01:00:00 16,5 14,0 15,7 14,2 14,9 13,9 24 13 38 21 S 1017,2 7 0 0,0
17.10.2017 00:00:00 16,6 14,3 15,7 14,3 15,0 13,9 23 12 35 19 S 1017,3 7 0 0,0
16.10.2017 23:00:00 16,4 14,1 15,6 14,4 15,2 13,9 21 12 40 22 S 1017,4 6 0 0,0
16.10.2017 22:00:00 17,2 14,7 16,1 14,6 15,4 13,9 25 13 36 19 S 1017,5 7 0 0,0
16.10.2017 21:00:00 17,6 15,0 16,4 14,8 15,6 13,9 19 11 31 17 SSE 1017,9 7 0 0,0
16.10.2017 20:00:00 17,3 14,8 16,0 15,0 15,8 13,9 18 10 26 14 SSE 1018,5 7 0 0,0
16.10.2017 19:00:00 17,0 14,5 16,0 15,5 16,0 13,9 18 10 26 14 S 1018,6 7 0 0,0
16.10.2017 18:00:00 16,6 14,5 16,1 16,7 16,1 13,9 16 8 27 14 SSW 1019,0 5 7 0,0
16.10.2017 17:00:00 17,2 14,5 17,4 18,2 16,0 13,9 19 10 29 15 SSW 1018,9 6 60 0,0
16.10.2017 16:00:00 17,3 14,2 18,3 19,6 15,8 13,9 18 10 30 16 S 1019,1 6 60 0,0
16.10.2017 15:00:00 16,7 13,7 18,2 20,2 15,4 13,9 16 8 28 15 SSW 1019,6 5 60 0,0
16.10.2017 14:00:00 16,3 13,6 18,1 20,1 14,9 13,9 18 10 27 14 SSW 1019,9 7 60 0,0
16.10.2017 13:00:00 15,9 13,2 17,7 19,3 14,4 13,9 19 10 26 14 SSW 1020,0 8 60 0,0
16.10.2017 12:00:00 15,1 13,1 16,5 17,6 14,0 13,9 19 10 26 14 SSW 1019,8 6 60 0,0
16.10.2017 11:00:00 14,7 13,1 15,8 15,8 13,8 13,9 18 10 29 15 SSW 1019,7 4,0 59 0,0
16.10.2017 10:00:00 14,4 13,3 14,7 14,5 13,7 13,9 17 9 22 12 SSW 1019,1 3,5 1 0,0
16.10.2017 09:00:00 14,2 13,3 14,2 13,8 13,6 13,9 14 8 25 14 SSW 1019,1 2,8 0 0,0
16.10.2017 08:00:00 14,4 13,3 14,1 13,4 13,6 13,9 19 10 29 16 SW 1018,5 3,0 0 0,0
16.10.2017 07:00:00 14,4 13,2 14,2 13,3 13,6 13,8 24 13 35 19 SW 1018,5 3,5 0 0,0
16.10.2017 06:00:00 14,3 12,9 13,4 12,4 13,7 13,8 24 13 32 18 SW 1018,2 4,5 0 0,0
16.10.2017 05:00:00 14,2 12,8 13,3 12,4 13,8 13,8 21 11 27 14 SSW 1018,1 4,0 0 0,0
16.10.2017 04:00:00 14,4 12,8 13,6 12,6 14,0 13,8 21 12 27 15 SW 1018,2 4,8 0 0,0
16.10.2017 03:00:00 14,5 12,7 13,5 12,6 14,1 13,8 19 10 27 15 SSW 1018,5 6 0 0,0
16.10.2017 02:00:00 14,7 12,7 13,6 12,7 14,3 13,8 22 12 29 16 SSW 1018,4 7 0 0,0
16.10.2017 01:00:00 14,7 12,8 13,7 12,9 14,5 13,8 20 11 31 17 SSW 1018,6 6 0 0,0
16.10.2017 00:00:00 15,0 13,0 14,0 13,2 14,7 13,8 21 11 31 17 S 1018,9 7 0 0,0
15.10.2017 23:00:00 15,2 13,1 14,2 13,4 15,0 13,8 20 11 35 19 S 1018,9 9 0 0,0
15.10.2017 22:00:00 15,9 13,2 14,8 13,8 15,2 13,8 23 13 39 21 S 1018,5 12 0 0,0
15.10.2017 21:00:00 16,6 13,5 15,4 14,1 15,5 13,8 23 13 40 21 SSE 1018,6 14 0 0,0
15.10.2017 20:00:00 17,3 13,7 15,8 14,7 15,8 13,8 23 12 35 19 SSE 1019,1 15 0 0,0
15.10.2017 19:00:00 17,3 14,2 15,9 15,5 16,1 13,8 20 11 34 18 S 1019,4 12 0 0,0
15.10.2017 18:00:00 17,6 14,6 17,0 16,9 16,2 13,8 21 11 31 17 S 1019,6 9 60 0,0
15.10.2017 17:00:00 18,2 14,8 18,6 18,8 16,0 13,8 19 10 33 18 S 1019,9 8 59 0,0
15.10.2017 16:00:00 18,2 14,5 19,3 20,1 15,7 13,8 22 12 35 19 S 1020,4 6 60 0,0
15.10.2017 15:00:00 18,5 15,0 19,8 21,1 15,2 13,8 21 11 32 18 S 1021,0 5 60 0,0

tt = Température de l'air
td = dewpoint
tt 5cm = Température de l'air 5cm
tt -5cm = Température de l'air -5cm
tt -20cm = Température de l'air -20cm
tt -100cm = Température de l'air -100cm
ff = Vitesse du vent
fx = gusts
dd = Direction du vent
ppp = reduced air pressure
vv = visibility
sd = Ensoleillement
rr = Quantités de précipitations

stations d'obs. à proximité